GW5240 Weather Reports


time (UTC)temp
C
wind
direction
speed
KPH
gust
KPH
rain 1hr
cm
rain 24hr
cm
rain mn
cm
humidity
%
barometer
mb
20260502233908 18 193 8.0 11.3 0.00 0.00 0.00 34 1011.0
20260502233403 18 164 6.4 8.0 0.00 0.00 0.00 34 1010.8
20260502232900 18 76 3.2 4.8 0.00 0.00 0.00 34 1011.2
20260502232356 18 169 0.0 0.0 0.00 0.00 0.00 34 1011.3
20260502231853 18 173 0.0 0.0 0.00 0.00 0.00 34 1011.0
20260502231351 18 166 3.2 4.8 0.00 0.00 0.00 32 1011.0
20260502230849 18 182 3.2 4.8 0.00 0.00 0.00 32 1011.1
20260502230347 19 176 3.2 4.8 0.00 0.00 0.00 32 1011.1
20260502225843 19 156 1.6 3.2 0.00 0.00 0.00 33 1011.1
20260502225340 19 115 3.2 3.2 0.00 0.00 0.00 34 1011.2
20260502224837 19 133 3.2 4.8 0.00 0.00 0.00 33 1011.1
20260502224333 19 200 4.8 11.3 0.00 0.00 0.00 32 1011.3
20260502223831 19 202 3.2 8.0 0.00 0.00 0.00 32 1011.5
20260502223329 18 152 4.8 8.0 0.00 0.00 0.00 33 1011.4
20260502222826 18 176 1.6 3.2 0.00 0.00 0.00 34 1011.4
20260502222323 18 189 0.0 0.0 0.00 0.00 0.00 34 1011.5
20260502221819 18 173 0.0 0.0 0.00 0.00 0.00 34 1011.6
20260502221315 18 171 1.6 3.2 0.00 0.00 0.00 33 1011.7
20260502220813 18 160 4.8 8.0 0.00 0.00 0.00 33 1011.8
20260502220308 18 179 0.0 3.2 0.00 0.00 0.00 33 1012.0
20260502215805 19 192 1.6 4.8 0.00 0.00 0.00 33 1011.7
20260502215304 19 303 6.4 8.0 0.00 0.00 0.00 32 1012.0
20260502214800 19 221 3.2 4.8 0.00 0.00 0.00 32 1012.0
20260502214256 18 177 0.0 3.2 0.00 0.00 0.00 33 1012.0
20260502213753 20 28 8.0 11.3 0.00 0.00 0.00 31 1012.1
20260502213251 20 346 3.2 4.8 0.00 0.00 0.00 31 1012.0
20260502212749 20 5 6.4 14.5 0.00 0.00 0.00 32 1012.1
20260502212247 20 296 6.4 14.5 0.00 0.00 0.00 32 1012.3
20260502211743 20 194 6.4 8.0 0.00 0.00 0.00 30 1012.4
20260502211240 19 248 4.8 4.8 0.00 0.00 0.00 31 1012.6
20260502210737 20 164 6.4 8.0 0.00 0.00 0.00 30 1012.6
20260502210234 21 182 4.8 8.0 0.00 0.00 0.00 29 1012.7
20260502205732 21 241 6.4 8.0 0.00 0.00 0.00 30 1012.9
20260502205227 20 175 3.2 4.8 0.00 0.00 0.00 30 1012.8
20260502204725 20 213 3.2 4.8 0.00 0.00 0.00 31 1013.2
20260502204222 20 210 11.3 14.5 0.00 0.00 0.00 31 1013.1
20260502203720 20 213 3.2 4.8 0.00 0.00 0.00 32 1013.2
20260502203218 20 192 3.2 4.8 0.00 0.00 0.00 31 1013.3
20260502202711 20 198 4.8 8.0 0.00 0.00 0.00 32 1013.5
20260502202210 20 138 4.8 8.0 0.00 0.00 0.00 30 1013.5
20260502201707 20 153 3.2 4.8 0.00 0.00 0.00 31 1013.6
20260502201204 20 314 8.0 8.0 0.00 0.00 0.00 31 1013.8
20260502200659 20 118 6.4 8.0 0.00 0.00 0.00 32 1014.0
20260502200156 20 192 6.4 14.5 0.00 0.00 0.00 30 1014.0
20260502195655 19 193 3.2 3.2 0.00 0.00 0.00 33 1014.1
20260502195150 19 210 6.4 11.3 0.00 0.00 0.00 33 1014.2
20260502194647 19 242 4.8 8.0 0.00 0.00 0.00 31 1014.3
20260502194144 19 203 4.8 11.3 0.00 0.00 0.00 30 1014.3
20260502193641 18 174 0.0 3.2 0.00 0.00 0.00 34 1014.7
20260502193138 17 205 4.8 8.0 0.00 0.00 0.00 33 1014.5
20260502192633 17 191 3.2 4.8 0.00 0.00 0.00 33 1014.7
20260502192131 17 203 1.6 3.2 0.00 0.00 0.00 32 1015.0
20260502191627 18 121 3.2 4.8 0.00 0.00 0.00 31 1015.1
20260502191125 19 211 9.7 16.1 0.00 0.00 0.00 30 1015.0
20260502190622 19 197 3.2 4.8 0.00 0.00 0.00 30 1015.1
20260502190120 18 215 3.2 4.8 0.00 0.00 0.00 33 1015.1
20260502185614 18 172 3.2 4.8 0.00 0.00 0.00 33 1015.3
20260502185111 18 205 8.0 11.3 0.00 0.00 0.00 31 1015.4
20260502184608 18 286 3.2 4.8 0.00 0.00 0.00 33 1015.5
20260502184103 17 193 1.6 3.2 0.00 0.00 0.00 35 1015.5
20260502183559 17 170 4.8 4.8 0.00 0.00 0.00 33 1015.8
20260502183056 17 192 1.6 4.8 0.00 0.00 0.00 32 1016.0
20260502182551 17 40 8.0 11.3 0.00 0.00 0.00 34 1015.8
20260502182047 17 189 4.8 8.0 0.00 0.00 0.00 34 1016.1
20260502181545 17 213 11.3 14.5 0.00 0.00 0.00 33 1015.8
20260502181044 16 13 6.4 8.0 0.00 0.00 0.00 33 1016.0
20260502180541 16 93 6.4 8.0 0.00 0.00 0.00 33 1016.3
20260502170459 15 201 8.0 11.3 0.00 0.00 0.00 34 1017.4
20260502163942 15 334 4.8 8.0 0.00 0.00 0.00 35 1017.6
20260502163438 15 177 4.8 8.0 0.00 0.00 0.00 35 1017.8
20260502162936 15 208 8.0 11.3 0.00 0.00 0.00 33 1017.8
20260502162433 15 190 1.6 3.2 0.00 0.00 0.00 38 1017.9
20260502161930 15 180 8.0 14.5 0.00 0.00 0.00 34 1017.9
20260502161426 15 345 14.5 16.1 0.00 0.00 0.00 35 1018.0
20260502160924 15 208 8.0 14.5 0.00 0.00 0.00 35 1017.9
20260502160422 14 183 6.4 8.0 0.00 0.00 0.00 36 1018.0
20260502151901 13 191 4.8 4.8 0.00 0.00 0.00 39 1018.3
20260502151357 13 180 3.2 4.8 0.00 0.00 0.00 40 1018.5
20260502150855 13 163 4.8 8.0 0.00 0.00 0.00 41 1018.6
20260502150351 13 171 1.6 3.2 0.00 0.00 0.00 39 1018.4
20260502130739 6 180 0.0 0.0 0.00 0.00 0.00 61 1019.2
20260502130237 6 166 0.0 0.0 0.00 0.00 0.00 61 1019.1
20260502123723 5 192 3.2 4.8 0.00 0.00 0.00 66 1019.1
20260502123219 5 179 0.0 0.0 0.00 0.00 0.00 67 1019.1
20260502122716 4 172 1.6 3.2 0.00 0.00 0.00 67 1018.9
20260502122212 4 170 0.0 0.0 0.00 0.00 0.00 68 1019.0
20260502121711 3 171 0.0 0.0 0.00 0.00 0.00 71 1019.1
20260502121208 2 175 0.0 0.0 0.00 0.00 0.00 74 1018.8
20260502120704 2 169 0.0 0.0 0.00 0.00 0.00 76 1018.7
20260502120201 2 175 0.0 0.0 0.00 0.00 0.00 76 1018.9
20260502115659 2 170 0.0 0.0 0.00 0.00 0.00 75 1019.0
20260502115155 2 162 0.0 0.0 0.00 0.00 0.00 75 1018.9
20260502114651 2 165 0.0 0.0 0.00 0.00 0.00 75 1019.0
20260502114149 1 160 0.0 0.0 0.00 0.00 0.00 75 1018.9
20260502113646 1 170 0.0 0.0 0.00 0.00 0.00 75 1018.8
20260502113144 1 169 0.0 0.0 0.00 0.00 0.00 73 1018.6
20260502112642 2 169 0.0 0.0 0.00 0.00 0.00 72 1018.8
20260502112139 2 169 0.0 0.0 0.00 0.00 0.00 73 1018.8
20260502111636 2 179 0.0 0.0 0.00 0.00 0.00 72 1018.7
20260502111134 2 172 0.0 0.0 0.00 0.00 0.00 72 1018.6
20260502110631 2 169 0.0 0.0 0.00 0.00 0.00 72 1018.6
20260502110128 2 175 0.0 0.0 0.00 0.00 0.00 72 1018.8
20260502105626 2 175 0.0 0.0 0.00 0.00 0.00 72 1018.5
20260502105123 2 176 0.0 0.0 0.00 0.00 0.00 71 1018.5
20260502104620 2 177 0.0 0.0 0.00 0.00 0.00 71 1018.7
20260502104117 2 171 0.0 0.0 0.00 0.00 0.00 70 1018.7
20260502103615 2 177 0.0 0.0 0.00 0.00 0.00 70 1018.6
20260502103113 2 174 0.0 0.0 0.00 0.00 0.00 69 1018.7
20260502102609 2 177 0.0 0.0 0.00 0.00 0.00 69 1018.6
20260502102106 2 167 0.0 0.0 0.00 0.00 0.00 69 1018.4
20260502101604 2 176 0.0 0.0 0.00 0.00 0.00 68 1018.5
20260502101102 2 170 0.0 0.0 0.00 0.00 0.00 68 1018.5
20260502100600 2 157 0.0 0.0 0.00 0.00 0.00 68 1018.5
20260502091032 3 180 0.0 0.0 0.00 0.00 0.00 64 1018.4
20260502090529 3 180 0.0 0.0 0.00 0.00 0.00 63 1018.4
20260502071424 5 164 0.0 0.0 0.00 0.00 0.00 61 1018.7
20260502070922 4 182 0.0 0.0 0.00 0.00 0.00 62 1018.8
20260502070420 4 173 0.0 0.0 0.00 0.00 0.00 63 1018.7
20260502065918 4 176 0.0 0.0 0.00 0.00 0.00 63 1018.9
20260502065416 4 172 0.0 0.0 0.00 0.00 0.00 62 1018.6
20260502064914 5 176 0.0 0.0 0.00 0.00 0.00 62 1018.8
20260502064411 5 173 0.0 0.0 0.00 0.00 0.00 62 1018.9
20260502063908 5 180 0.0 0.0 0.00 0.00 0.00 61 1018.9
20260502063406 5 182 0.0 0.0 0.00 0.00 0.00 61 1018.9
20260502062903 5 175 0.0 0.0 0.00 0.00 0.00 60 1019.0
20260502062400 5 173 0.0 0.0 0.00 0.00 0.00 60 1018.9
20260502061859 5 175 0.0 0.0 0.00 0.00 0.00 60 1018.9
20260502061357 5 174 0.0 0.0 0.00 0.00 0.00 59 1018.9
20260502060852 5 177 0.0 0.0 0.00 0.00 0.00 60 1019.0
20260502060347 5 176 0.0 0.0 0.00 0.00 0.00 60 1018.8
20260502055845 5 179 0.0 0.0 0.00 0.00 0.00 60 1019.0
20260502055343 5 184 0.0 0.0 0.00 0.00 0.00 59 1019.1
20260502054842 5 172 0.0 0.0 0.00 0.00 0.00 60 1019.2
20260502054339 5 174 0.0 0.0 0.00 0.00 0.00 59 1019.0
20260502053837 5 173 0.0 0.0 0.00 0.00 0.00 59 1018.9
20260502053334 5 173 0.0 0.0 0.00 0.00 0.00 58 1018.9
20260502052831 5 173 0.0 0.0 0.00 0.00 0.00 57 1019.0
20260502052329 5 173 0.0 0.0 0.00 0.00 0.00 56 1019.0
20260502051827 5 173 0.0 0.0 0.00 0.00 0.00 55 1019.0
20260502051326 5 173 0.0 0.0 0.00 0.00 0.00 55 1019.0
20260502050821 5 178 0.0 0.0 0.00 0.00 0.00 55 1019.0
20260502050318 5 178 0.0 0.0 0.00 0.00 0.00 55 1018.9
20260502045815 5 180 0.0 0.0 0.00 0.00 0.00 54 1019.0
20260502045311 5 173 0.0 0.0 0.00 0.00 0.00 55 1018.8
20260502044809 5 176 0.0 0.0 0.00 0.00 0.00 54 1018.8
20260502044305 5 174 0.0 0.0 0.00 0.00 0.00 54 1018.9
20260502043802 5 177 0.0 0.0 0.00 0.00 0.00 55 1019.0
20260502043300 5 176 0.0 0.0 0.00 0.00 0.00 56 1019.0
20260502042759 5 173 0.0 0.0 0.00 0.00 0.00 55 1019.0
20260502042256 5 174 0.0 0.0 0.00 0.00 0.00 55 1018.9
20260502041754 5 174 0.0 0.0 0.00 0.00 0.00 55 1018.9
20260502041251 5 173 0.0 0.0 0.00 0.00 0.00 55 1019.0
20260502040748 5 175 0.0 0.0 0.00 0.00 0.00 55 1019.1
20260502040245 5 172 0.0 0.0 0.00 0.00 0.00 56 1018.9
20260502035741 5 175 0.0 0.0 0.00 0.00 0.00 56 1019.0
20260502035238 5 174 0.0 0.0 0.00 0.00 0.00 55 1018.9
20260502034735 5 174 0.0 0.0 0.00 0.00 0.00 54 1019.1
20260502034233 5 173 0.0 0.0 0.00 0.00 0.00 54 1018.9
20260502033731 6 173 0.0 0.0 0.00 0.00 0.00 53 1018.9
20260502033229 6 173 0.0 0.0 0.00 0.00 0.00 53 1019.2
20260502032725 6 173 0.0 0.0 0.00 0.00 0.00 52 1019.0
20260502032221 6 173 0.0 0.0 0.00 0.00 0.00 52 1019.0
20260502031720 6 173 0.0 0.0 0.00 0.00 0.00 52 1019.2
20260502031217 6 173 0.0 0.0 0.00 0.00 0.00 51 1019.1
20260502030716 6 175 0.0 0.0 0.00 0.00 0.00 51 1019.0
20260502030214 6 176 0.0 0.0 0.00 0.00 0.00 50 1018.9
20260502025710 6 179 0.0 0.0 0.00 0.00 0.00 50 1019.0
20260502025208 6 179 0.0 0.0 0.00 0.00 0.00 49 1018.9
20260502024706 6 179 0.0 0.0 0.00 0.00 0.00 49 1019.0
20260502024204 6 179 0.0 0.0 0.00 0.00 0.00 48 1019.0
20260502023701 6 179 0.0 0.0 0.00 0.00 0.00 47 1019.0
20260502023158 6 179 0.0 0.0 0.00 0.00 0.00 47 1018.9
20260502022655 6 179 0.0 0.0 0.00 0.00 0.00 46 1019.1
20260502022152 7 179 0.0 0.0 0.00 0.00 0.00 46 1019.1
20260502021650 7 179 0.0 0.0 0.00 0.00 0.00 45 1019.0
20260502021147 7 179 0.0 0.0 0.00 0.00 0.00 43 1019.1
20260502020644 7 179 0.0 0.0 0.00 0.00 0.00 43 1018.9
20260502020140 8 179 0.0 0.0 0.00 0.00 0.00 42 1018.7
20260502015639 8 179 0.0 0.0 0.00 0.00 0.00 41 1018.7
20260502015134 8 179 0.0 0.0 0.00 0.00 0.00 40 1018.6
20260502014632 8 179 0.0 0.0 0.00 0.00 0.00 40 1018.6
20260502014129 9 185 0.0 0.0 0.00 0.00 0.00 39 1018.4
20260502013625 9 177 0.0 0.0 0.00 0.00 0.00 37 1018.4
20260502013121 10 186 0.0 0.0 0.00 0.00 0.00 37 1018.4
20260502012618 10 182 0.0 0.0 0.00 0.00 0.00 36 1018.5
20260502012116 10 162 0.0 0.0 0.00 0.00 0.00 35 1018.4
20260502011613 10 177 0.0 0.0 0.00 0.00 0.00 35 1018.4
20260502011108 10 175 0.0 0.0 0.00 0.00 0.00 33 1018.5
20260502010606 11 303 3.2 3.2 0.00 0.00 0.00 33 1018.4
20260502005600 11 218 1.6 3.2 0.00 0.00 0.00 34 1018.5
20260502005058 11 189 4.8 4.8 0.00 0.00 0.00 33 1018.3
20260502004553 11 164 0.0 0.0 0.00 0.00 0.00 33 1018.3
20260502004050 11 157 0.0 3.2 0.00 0.00 0.00 33 1018.4
20260502003548 11 308 12.9 16.1 0.00 0.00 0.00 32 1018.6
20260502003045 12 324 3.2 4.8 0.00 0.00 0.00 32 1018.4
20260502002541 12 182 0.0 0.0 0.00 0.00 0.00 31 1018.4
20260502002038 11 27 3.2 4.8 0.00 0.00 0.00 33 1018.5
20260502001536 11 178 1.6 3.2 0.00 0.00 0.00 33 1018.3
20260502001033 11 171 1.6 3.2 0.00 0.00 0.00 33 1018.1
20260502000532 11 129 0.0 0.0 0.00 0.00 0.00 34 1018.3
20260502000028 11 359 3.2 4.8 0.00 0.00 0.00 33 1018.1
20260501235524 11 265 6.4 8.0 0.00 0.00 0.00 33 1018.5
20260501235020 11 14 1.6 3.2 0.00 0.00 0.00 34 1018.3
20260501234516 11 134 3.2 3.2 0.00 0.00 0.00 33 1018.5